Weather in Legaspi

Philippines     13°09′25″N   123°44′03″E
temp.,
°C
wind,
m/s
gust,
m/s
humid.,
%
clouds,
%
prec.,
mm/h
press.,
hPa
HPBL,
m
19 april, mon
mon1923:00+24nnw61393100 10.5 10041120
02:00+24nw61392100 20.9 10011033
05:00+24wnw51293100 11.3 1002924
08:00+22w5995100 38.4 1004576
11:00+23w5895100 23.4 1003493
14:00+22w5995100 42.1 1001545
17:00+22w61295100 33.3 1002711
20:00+22w5995100 49.0 1005430
20 april, tue
tue2023:00+22w4695100 22.8 1005310
02:00+23w3595100 36.0 1003242
05:00+23w4693100 1.4 1004299
08:00+24w4690100 1.4 1005372
11:00+26w4681100 0.1 1005538
14:00+26w4678100 0.2 1004622
17:00+25wsw3582100 0.1 1004225
20:00+24w3585100 0.2 1007157
21 april, wed
wed2123:00+24wsw3487100 0.0 1006150
02:00+24wsw3689100 0.0 1005256
05:00+24sw4791100 0.1 1005294
08:00+26wsw4982100 0.2 1007693
11:00+27sw4778100 0.3 1007805
14:00+27sw4678100 0.6 1005688
17:00+26sw3683100 0.3 1004430
20:00+25sw3689100 0.3 1006216
22 april, thu
thu2223:00+25sw5990100 0.1 1006438
02:00+25sw61088100 0.4 1005624
05:00+25sw51090100 0.3 1005572
08:00+26sw5884100 0.8 1007662
11:00+28sw6978100 0.9 1006950
14:00+28sw6877100 2.3 1004860
17:00+27sw4782100 0.4 1004579
20:00+25sw3490100 0.4 1006140
23 april, fri
fri2323:00+25wsw3690100 0.0 1006250
02:00+25sw3690100 0.2 1005247
05:00+24wsw369198 0.2 1005213
08:00+27wsw368086 0.4 1007633
11:00+27wsw4679100 1.1 1007800
14:00+29wsw457345 1.8 1005960
17:00+28wsw35755 0.1 1005691
20:00+25w3490100 0.1 1007154